| time (UTC) | temp F | wind direction | speed MPH | gust MPH | rain 1hr in | rain 24hr in | rain mn in | humidity % | barometer mb |
| 20260503013413 | 49 | 144 | 1.0 | 2.0 | 0.00 | 0.00 | 0.00 | 90 | 1009.9 |
| 20260503012910 | 49 | 132 | 0.0 | 1.0 | 0.00 | 0.00 | 0.00 | 90 | 1009.8 |
| 20260503012408 | 49 | 93 | 0.0 | 0.0 | 0.00 | 0.00 | 0.00 | 90 | 1009.8 |
| 20260503011904 | 49 | 92 | 0.0 | 0.0 | 0.00 | 0.00 | 0.00 | 90 | 1009.8 |
| 20260503011401 | 49 | 83 | 0.0 | 0.0 | 0.00 | 0.00 | 0.00 | 90 | 1009.9 |
| 20260503010857 | 49 | 77 | 0.0 | 0.0 | 0.00 | 0.00 | 0.00 | 90 | 1009.8 |
| 20260503010354 | 49 | 82 | 0.0 | 0.0 | 0.00 | 0.00 | 0.00 | 90 | 1009.6 |
| 20260503005851 | 50 | 93 | 0.0 | 0.0 | 0.00 | 0.00 | 0.00 | 90 | 1009.6 |
| 20260503005349 | 50 | 109 | 0.0 | 0.0 | 0.00 | 0.00 | 0.00 | 90 | 1009.6 |
| 20260503004845 | 50 | 106 | 1.0 | 2.0 | 0.00 | 0.00 | 0.00 | 90 | 1009.5 |
| 20260503004342 | 50 | 114 | 1.0 | 2.0 | 0.00 | 0.00 | 0.00 | 90 | 1009.5 |
| 20260503003840 | 50 | 116 | 1.0 | 2.0 | 0.00 | 0.00 | 0.00 | 91 | 1009.6 |
| 20260503003336 | 50 | 153 | 2.0 | 3.0 | 0.00 | 0.00 | 0.00 | 91 | 1009.4 |
| 20260503002832 | 50 | 140 | 4.0 | 4.0 | 0.00 | 0.00 | 0.00 | 91 | 1009.5 |
| 20260503002325 | 50 | 100 | 1.0 | 2.0 | 0.00 | 0.00 | 0.00 | 91 | 1009.7 |
| 20260503001821 | 50 | 123 | 1.0 | 2.0 | 0.00 | 0.00 | 0.00 | 91 | 1009.4 |
| 20260503001317 | 50 | 152 | 2.0 | 3.0 | 0.00 | 0.00 | 0.00 | 91 | 1009.4 |
| 20260503000815 | 50 | 119 | 2.0 | 2.0 | 0.00 | 0.00 | 0.00 | 91 | 1009.5 |
| 20260503000313 | 50 | 183 | 4.0 | 4.0 | 0.00 | 0.00 | 0.00 | 91 | 1009.5 |
| 20260502235809 | 50 | 131 | 3.0 | 3.0 | 0.00 | 0.00 | 0.00 | 91 | 1009.5 |
| 20260502235306 | 50 | 130 | 2.0 | 3.0 | 0.00 | 0.00 | 0.00 | 91 | 1009.3 |
| 20260502234803 | 50 | 189 | 2.0 | 3.0 | 0.00 | 0.00 | 0.00 | 91 | 1009.5 |
| 20260502234300 | 50 | 152 | 3.0 | 4.0 | 0.00 | 0.00 | 0.00 | 91 | 1009.4 |
| 20260502233756 | 50 | 154 | 3.0 | 4.0 | 0.00 | 0.00 | 0.00 | 91 | 1009.4 |
| 20260502233253 | 50 | 155 | 3.0 | 3.0 | 0.00 | 0.00 | 0.00 | 90 | 1009.5 |
| 20260502232749 | 50 | 165 | 3.0 | 3.0 | 0.00 | 0.00 | 0.00 | 90 | 1009.5 |
| 20260502232246 | 50 | 160 | 3.0 | 3.0 | 0.00 | 0.00 | 0.00 | 90 | 1009.6 |
| 20260502231743 | 50 | 175 | 4.0 | 4.0 | 0.00 | 0.00 | 0.00 | 91 | 1009.7 |
| 20260502231240 | 50 | 185 | 4.0 | 4.0 | 0.00 | 0.00 | 0.00 | 91 | 1009.6 |
| 20260502230739 | 50 | 199 | 4.0 | 4.0 | 0.00 | 0.00 | 0.00 | 91 | 1009.5 |
| 20260502230237 | 50 | 190 | 5.0 | 6.0 | 0.00 | 0.00 | 0.00 | 90 | 1009.5 |
| 20260502225733 | 50 | 201 | 6.0 | 6.0 | 0.00 | 0.00 | 0.00 | 90 | 1009.8 |
| 20260502225230 | 50 | 174 | 4.0 | 4.0 | 0.00 | 0.00 | 0.00 | 90 | 1009.7 |
| 20260502224726 | 50 | 199 | 5.0 | 6.0 | 0.00 | 0.00 | 0.00 | 90 | 1009.8 |
| 20260502224223 | 50 | 175 | 5.0 | 6.0 | 0.00 | 0.00 | 0.00 | 90 | 1009.6 |
| 20260502223720 | 50 | 197 | 6.0 | 7.0 | 0.00 | 0.00 | 0.00 | 90 | 1009.6 |
| 20260502223218 | 50 | 189 | 6.0 | 7.0 | 0.00 | 0.00 | 0.00 | 90 | 1009.6 |
| 20260502222716 | 50 | 194 | 7.0 | 8.0 | 0.00 | 0.00 | 0.00 | 90 | 1009.7 |
| 20260502222212 | 50 | 201 | 7.0 | 8.0 | 0.00 | 0.00 | 0.00 | 90 | 1009.6 |
| 20260502221708 | 50 | 209 | 6.0 | 7.0 | 0.00 | 0.00 | 0.00 | 90 | 1009.5 |
| 20260502221205 | 50 | 206 | 7.0 | 8.0 | 0.00 | 0.00 | 0.00 | 90 | 1009.5 |
| 20260502220701 | 50 | 202 | 5.0 | 6.0 | 0.00 | 0.00 | 0.00 | 90 | 1009.4 |
| 20260502220158 | 50 | 211 | 5.0 | 6.0 | 0.00 | 0.00 | 0.00 | 90 | 1009.6 |
| 20260502215655 | 50 | 195 | 6.0 | 6.0 | 0.00 | 0.00 | 0.00 | 91 | 1009.6 |
| 20260502215151 | 50 | 207 | 6.0 | 7.0 | 0.00 | 0.00 | 0.00 | 91 | 1009.7 |
| 20260502214649 | 50 | 195 | 6.0 | 7.0 | 0.00 | 0.00 | 0.00 | 90 | 1009.6 |
| 20260502214146 | 50 | 158 | 6.0 | 8.0 | 0.00 | 0.00 | 0.00 | 90 | 1009.5 |
| 20260502213643 | 50 | 192 | 7.0 | 7.0 | 0.00 | 0.00 | 0.00 | 90 | 1009.3 |
| 20260502213140 | 50 | 178 | 5.0 | 6.0 | 0.00 | 0.00 | 0.00 | 90 | 1009.4 |
| 20260502212639 | 50 | 193 | 8.0 | 9.0 | 0.00 | 0.00 | 0.00 | 89 | 1009.2 |
| 20260502212137 | 50 | 190 | 7.0 | 8.0 | 0.00 | 0.00 | 0.00 | 89 | 1009.3 |
| 20260502211632 | 51 | 176 | 9.0 | 10.0 | 0.00 | 0.00 | 0.00 | 89 | 1009.3 |
| 20260502211130 | 50 | 166 | 8.0 | 8.0 | 0.00 | 0.00 | 0.00 | 89 | 1009.5 |
| 20260502210627 | 50 | 183 | 8.0 | 9.0 | 0.00 | 0.00 | 0.00 | 88 | 1009.1 |
| 20260502210124 | 51 | 209 | 7.0 | 9.0 | 0.00 | 0.00 | 0.00 | 89 | 1009.5 |
| 20260502205620 | 50 | 184 | 11.0 | 11.0 | 0.00 | 0.00 | 0.00 | 88 | 1009.6 |
| 20260502205112 | 50 | 178 | 7.0 | 8.0 | 0.00 | 0.00 | 0.00 | 88 | 1009.6 |
| 20260502204608 | 50 | 187 | 9.0 | 9.0 | 0.00 | 0.00 | 0.00 | 89 | 1009.6 |
| 20260502204106 | 50 | 173 | 8.0 | 9.0 | 0.00 | 0.00 | 0.00 | 89 | 1009.6 |
| 20260502203602 | 50 | 181 | 8.0 | 9.0 | 0.00 | 0.00 | 0.00 | 88 | 1009.9 |
| 20260502203054 | 50 | 189 | 9.0 | 10.0 | 0.00 | 0.00 | 0.00 | 88 | 1009.7 |
| 20260502202550 | 50 | 203 | 7.0 | 8.0 | 0.00 | 0.00 | 0.00 | 88 | 1009.7 |
| 20260502202048 | 50 | 200 | 8.0 | 9.0 | 0.00 | 0.00 | 0.00 | 88 | 1009.7 |
| 20260502201543 | 51 | 194 | 8.0 | 8.0 | 0.00 | 0.00 | 0.00 | 89 | 1009.7 |
| 20260502201035 | 50 | 209 | 8.0 | 9.0 | 0.00 | 0.00 | 0.00 | 88 | 1009.7 |
| 20260502200531 | 51 | 202 | 10.0 | 10.0 | 0.00 | 0.00 | 0.00 | 88 | 1009.8 |
| 20260502200029 | 51 | 194 | 7.0 | 8.0 | 0.00 | 0.00 | 0.00 | 88 | 1009.6 |
| 20260502195526 | 51 | 196 | 11.0 | 13.0 | 0.00 | 0.00 | 0.00 | 88 | 1009.6 |
| 20260502195022 | 51 | 200 | 11.0 | 13.0 | 0.00 | 0.00 | 0.00 | 88 | 1009.8 |
| 20260502194519 | 51 | 201 | 12.0 | 14.0 | 0.00 | 0.00 | 0.00 | 88 | 1009.9 |
| 20260502194015 | 51 | 207 | 13.0 | 14.0 | 0.00 | 0.00 | 0.00 | 88 | 1009.9 |
| 20260502193512 | 51 | 202 | 12.0 | 13.0 | 0.00 | 0.00 | 0.00 | 88 | 1010.0 |
| 20260502193003 | 51 | 179 | 10.0 | 11.0 | 0.00 | 0.00 | 0.00 | 88 | 1009.9 |
| 20260502192459 | 51 | 186 | 11.0 | 13.0 | 0.00 | 0.00 | 0.00 | 89 | 1009.9 |
| 20260502191956 | 51 | 194 | 13.0 | 14.0 | 0.00 | 0.00 | 0.00 | 88 | 1010.1 |
| 20260502191453 | 51 | 192 | 11.0 | 13.0 | 0.00 | 0.00 | 0.00 | 88 | 1010.3 |
| 20260502190951 | 51 | 184 | 11.0 | 11.0 | 0.00 | 0.00 | 0.00 | 88 | 1010.3 |
| 20260502190448 | 51 | 196 | 9.0 | 10.0 | 0.00 | 0.00 | 0.00 | 88 | 1010.1 |
| 20260502185944 | 51 | 184 | 11.0 | 11.0 | 0.00 | 0.00 | 0.00 | 88 | 1010.3 |
| 20260502185439 | 51 | 195 | 11.0 | 11.0 | 0.00 | 0.00 | 0.00 | 88 | 1010.3 |
| 20260502184931 | 51 | 192 | 11.0 | 11.0 | 0.00 | 0.00 | 0.00 | 88 | 1010.7 |
| 20260502184426 | 51 | 198 | 9.0 | 10.0 | 0.00 | 0.00 | 0.00 | 87 | 1010.5 |
| 20260502183923 | 51 | 201 | 11.0 | 13.0 | 0.00 | 0.00 | 0.00 | 88 | 1010.6 |
| 20260502183419 | 51 | 180 | 9.0 | 10.0 | 0.00 | 0.00 | 0.00 | 87 | 1010.5 |
| 20260502182915 | 51 | 193 | 10.0 | 11.0 | 0.00 | 0.00 | 0.00 | 87 | 1010.4 |
| 20260502182410 | 51 | 185 | 11.0 | 13.0 | 0.00 | 0.00 | 0.00 | 86 | 1010.6 |
| 20260502181907 | 52 | 162 | 9.0 | 10.0 | 0.00 | 0.00 | 0.00 | 86 | 1010.5 |
| 20260502181405 | 52 | 175 | 9.0 | 10.0 | 0.00 | 0.00 | 0.00 | 84 | 1010.6 |
| 20260502180903 | 52 | 190 | 12.0 | 13.0 | 0.00 | 0.00 | 0.00 | 81 | 1010.6 |
| 20260502180359 | 52 | 180 | 10.0 | 11.0 | 0.00 | 0.00 | 0.00 | 81 | 1010.8 |
| 20260502170318 | 52 | 185 | 7.0 | 8.0 | 0.00 | 0.00 | 0.00 | 85 | 1010.9 |
| 20260502164306 | 51 | 197 | 10.0 | 10.0 | 0.00 | 0.00 | 0.00 | 86 | 1011.2 |
| 20260502163801 | 51 | 197 | 10.0 | 11.0 | 0.00 | 0.00 | 0.00 | 86 | 1011.1 |
| 20260502163258 | 51 | 198 | 9.0 | 10.0 | 0.00 | 0.00 | 0.00 | 86 | 1010.9 |
| 20260502162756 | 51 | 177 | 10.0 | 13.0 | 0.00 | 0.00 | 0.00 | 86 | 1011.0 |
| 20260502162253 | 51 | 202 | 12.0 | 14.0 | 0.00 | 0.00 | 0.00 | 86 | 1011.2 |
| 20260502161749 | 51 | 194 | 12.0 | 14.0 | 0.00 | 0.00 | 0.00 | 84 | 1011.0 |
| 20260502161245 | 51 | 199 | 14.0 | 15.0 | 0.00 | 0.00 | 0.00 | 85 | 1010.9 |
| 20260502160743 | 51 | 201 | 14.0 | 15.0 | 0.00 | 0.00 | 0.00 | 83 | 1011.2 |
| 20260502160242 | 51 | 198 | 13.0 | 14.0 | 0.00 | 0.00 | 0.00 | 84 | 1011.2 |
| 20260502152200 | 52 | 191 | 10.0 | 11.0 | 0.00 | 0.00 | 0.00 | 85 | 1011.2 |
| 20260502151658 | 51 | 194 | 9.0 | 9.0 | 0.00 | 0.00 | 0.00 | 86 | 1011.5 |
| 20260502151155 | 51 | 178 | 8.0 | 9.0 | 0.00 | 0.00 | 0.00 | 86 | 1011.7 |
| 20260502150652 | 52 | 204 | 10.0 | 10.0 | 0.00 | 0.00 | 0.00 | 83 | 1011.8 |
| 20260502150148 | 54 | 199 | 11.0 | 11.0 | 0.00 | 0.00 | 0.00 | 82 | 1011.2 |
| 20260502140107 | 54 | 181 | 5.0 | 6.0 | 0.00 | 0.00 | 0.00 | 78 | 1011.4 |
| 20260502130531 | 52 | 13 | 2.0 | 2.0 | 0.00 | 0.00 | 0.00 | 79 | 1012.1 |
| 20260502123515 | 51 | 103 | 2.0 | 2.0 | 0.00 | 0.00 | 0.00 | 81 | 1011.9 |
| 20260502123011 | 51 | 244 | 3.0 | 3.0 | 0.00 | 0.00 | 0.00 | 81 | 1012.1 |
| 20260502122508 | 51 | 232 | 3.0 | 3.0 | 0.00 | 0.00 | 0.00 | 81 | 1012.0 |
| 20260502122005 | 51 | 207 | 6.0 | 7.0 | 0.00 | 0.00 | 0.00 | 81 | 1011.9 |
| 20260502121502 | 51 | 214 | 6.0 | 7.0 | 0.00 | 0.00 | 0.00 | 81 | 1011.8 |
| 20260502120959 | 50 | 204 | 5.0 | 6.0 | 0.00 | 0.00 | 0.00 | 81 | 1011.6 |
| 20260502120456 | 50 | 202 | 5.0 | 6.0 | 0.00 | 0.00 | 0.00 | 81 | 1011.7 |
| 20260502115451 | 50 | 209 | 5.0 | 6.0 | 0.00 | 0.00 | 0.00 | 81 | 1011.5 |
| 20260502114946 | 50 | 211 | 6.0 | 7.0 | 0.00 | 0.00 | 0.00 | 81 | 1011.5 |
| 20260502114443 | 50 | 197 | 6.0 | 8.0 | 0.00 | 0.00 | 0.00 | 81 | 1011.5 |
| 20260502113940 | 50 | 217 | 6.0 | 7.0 | 0.00 | 0.00 | 0.00 | 81 | 1011.5 |
| 20260502113438 | 50 | 207 | 6.0 | 8.0 | 0.00 | 0.00 | 0.00 | 81 | 1011.5 |
| 20260502112936 | 50 | 212 | 6.0 | 7.0 | 0.00 | 0.00 | 0.00 | 81 | 1011.7 |
| 20260502112433 | 50 | 226 | 6.0 | 7.0 | 0.00 | 0.00 | 0.00 | 81 | 1011.4 |
| 20260502111931 | 50 | 201 | 7.0 | 8.0 | 0.00 | 0.00 | 0.00 | 81 | 1011.2 |
| 20260502111427 | 50 | 214 | 6.0 | 7.0 | 0.00 | 0.00 | 0.00 | 81 | 1011.0 |
| 20260502110925 | 50 | 197 | 8.0 | 8.0 | 0.00 | 0.00 | 0.00 | 81 | 1011.3 |
| 20260502110423 | 50 | 198 | 7.0 | 8.0 | 0.00 | 0.00 | 0.00 | 81 | 1011.3 |
| 20260502105920 | 49 | 193 | 4.0 | 6.0 | 0.00 | 0.00 | 0.00 | 79 | 1011.2 |
| 20260502105417 | 49 | 200 | 3.0 | 3.0 | 0.00 | 0.00 | 0.00 | 79 | 1011.3 |
| 20260502104916 | 49 | 200 | 4.0 | 4.0 | 0.00 | 0.00 | 0.00 | 79 | 1011.2 |
| 20260502104413 | 49 | 208 | 4.0 | 4.0 | 0.00 | 0.00 | 0.00 | 79 | 1011.2 |
| 20260502103910 | 49 | 223 | 6.0 | 7.0 | 0.00 | 0.00 | 0.00 | 80 | 1011.2 |
| 20260502103408 | 49 | 201 | 4.0 | 4.0 | 0.00 | 0.00 | 0.00 | 79 | 1011.1 |
| 20260502102904 | 49 | 226 | 5.0 | 6.0 | 0.00 | 0.00 | 0.00 | 79 | 1011.1 |
| 20260502102400 | 49 | 200 | 5.0 | 6.0 | 0.00 | 0.00 | 0.00 | 78 | 1011.0 |
| 20260502101858 | 49 | 189 | 3.0 | 3.0 | 0.00 | 0.00 | 0.00 | 77 | 1011.1 |
| 20260502101356 | 49 | 207 | 3.0 | 4.0 | 0.00 | 0.00 | 0.00 | 77 | 1010.8 |
| 20260502100854 | 49 | 210 | 4.0 | 4.0 | 0.00 | 0.00 | 0.00 | 77 | 1010.9 |
| 20260502100353 | 49 | 196 | 3.0 | 3.0 | 0.00 | 0.00 | 0.00 | 77 | 1010.9 |
| 20260502091327 | 49 | 220 | 6.0 | 8.0 | 0.00 | 0.00 | 0.00 | 74 | 1010.7 |
| 20260502090824 | 49 | 210 | 8.0 | 8.0 | 0.00 | 0.00 | 0.00 | 75 | 1010.8 |
| 20260502090321 | 49 | 206 | 7.0 | 7.0 | 0.00 | 0.00 | 0.00 | 75 | 1010.7 |
| 20260502071216 | 50 | 206 | 4.0 | 4.0 | 0.00 | 0.00 | 0.00 | 73 | 1010.8 |
| 20260502070714 | 51 | 199 | 4.0 | 4.0 | 0.00 | 0.00 | 0.00 | 71 | 1010.9 |
| 20260502070211 | 51 | 207 | 4.0 | 4.0 | 0.00 | 0.00 | 0.00 | 70 | 1010.8 |
| 20260502065710 | 51 | 236 | 2.0 | 3.0 | 0.00 | 0.00 | 0.00 | 70 | 1010.7 |
| 20260502065207 | 51 | 260 | 5.0 | 6.0 | 0.00 | 0.00 | 0.00 | 70 | 1010.5 |
| 20260502064706 | 51 | 232 | 5.0 | 6.0 | 0.00 | 0.00 | 0.00 | 70 | 1010.6 |
| 20260502064202 | 51 | 197 | 6.0 | 7.0 | 0.00 | 0.00 | 0.00 | 70 | 1010.7 |
| 20260502063700 | 52 | 288 | 6.0 | 9.0 | 0.00 | 0.00 | 0.00 | 69 | 1010.7 |
| 20260502063158 | 52 | 271 | 11.0 | 11.0 | 0.00 | 0.00 | 0.00 | 69 | 1010.6 |
| 20260502062655 | 52 | 263 | 8.0 | 9.0 | 0.00 | 0.00 | 0.00 | 68 | 1010.9 |
| 20260502062152 | 52 | 247 | 10.0 | 10.0 | 0.00 | 0.00 | 0.00 | 69 | 1010.9 |
| 20260502061651 | 52 | 265 | 7.0 | 8.0 | 0.00 | 0.00 | 0.00 | 70 | 1010.9 |
| 20260502061148 | 52 | 256 | 8.0 | 10.0 | 0.00 | 0.00 | 0.00 | 69 | 1010.7 |
| 20260502060642 | 52 | 247 | 9.0 | 10.0 | 0.00 | 0.00 | 0.00 | 68 | 1010.6 |
| 20260502060139 | 52 | 265 | 12.0 | 15.0 | 0.00 | 0.00 | 0.00 | 66 | 1010.7 |
| 20260502055637 | 52 | 218 | 11.0 | 13.0 | 0.00 | 0.00 | 0.00 | 66 | 1010.6 |
| 20260502055134 | 52 | 250 | 10.0 | 11.0 | 0.00 | 0.00 | 0.00 | 67 | 1010.8 |
| 20260502054633 | 52 | 249 | 12.0 | 15.0 | 0.00 | 0.00 | 0.00 | 67 | 1010.8 |
| 20260502054130 | 52 | 262 | 12.0 | 14.0 | 0.00 | 0.00 | 0.00 | 64 | 1010.9 |
| 20260502053627 | 52 | 251 | 11.0 | 13.0 | 0.00 | 0.00 | 0.00 | 68 | 1010.8 |
| 20260502053125 | 52 | 215 | 13.0 | 15.0 | 0.00 | 0.00 | 0.00 | 65 | 1010.9 |
| 20260502052623 | 52 | 252 | 10.0 | 11.0 | 0.00 | 0.00 | 0.00 | 66 | 1010.9 |
| 20260502052121 | 52 | 241 | 8.0 | 9.0 | 0.00 | 0.00 | 0.00 | 64 | 1011.0 |
| 20260502051619 | 52 | 242 | 5.0 | 6.0 | 0.00 | 0.00 | 0.00 | 64 | 1010.9 |
| 20260502051117 | 52 | 245 | 7.0 | 8.0 | 0.00 | 0.00 | 0.00 | 65 | 1011.1 |
| 20260502050612 | 52 | 253 | 6.0 | 7.0 | 0.00 | 0.00 | 0.00 | 65 | 1010.9 |
| 20260502050109 | 52 | 244 | 5.0 | 6.0 | 0.00 | 0.00 | 0.00 | 63 | 1010.9 |
| 20260502045605 | 52 | 91 | 3.0 | 4.0 | 0.00 | 0.00 | 0.00 | 65 | 1011.0 |
| 20260502045103 | 52 | 278 | 4.0 | 6.0 | 0.00 | 0.00 | 0.00 | 65 | 1011.1 |
| 20260502044559 | 52 | 313 | 3.0 | 4.0 | 0.00 | 0.00 | 0.00 | 64 | 1010.9 |
| 20260502044056 | 52 | 215 | 3.0 | 4.0 | 0.00 | 0.00 | 0.00 | 63 | 1011.1 |
| 20260502043554 | 52 | 99 | 3.0 | 4.0 | 0.00 | 0.00 | 0.00 | 65 | 1011.2 |
| 20260502043050 | 52 | 190 | 2.0 | 3.0 | 0.00 | 0.00 | 0.00 | 66 | 1011.2 |
| 20260502042544 | 52 | 225 | 2.0 | 3.0 | 0.00 | 0.00 | 0.00 | 65 | 1011.1 |
| 20260502042043 | 52 | 48 | 2.0 | 2.0 | 0.00 | 0.00 | 0.00 | 65 | 1011.1 |
| 20260502041540 | 52 | 270 | 4.0 | 4.0 | 0.00 | 0.00 | 0.00 | 65 | 1011.0 |
| 20260502041037 | 52 | 263 | 4.0 | 4.0 | 0.00 | 0.00 | 0.00 | 66 | 1011.3 |
| 20260502040533 | 52 | 109 | 3.0 | 3.0 | 0.00 | 0.00 | 0.00 | 66 | 1011.1 |
| 20260502040031 | 52 | 308 | 4.0 | 4.0 | 0.00 | 0.00 | 0.00 | 66 | 1011.2 |
| 20260502035526 | 52 | 271 | 3.0 | 3.0 | 0.00 | 0.00 | 0.00 | 67 | 1011.3 |
| 20260502035024 | 52 | 278 | 6.0 | 8.0 | 0.00 | 0.00 | 0.00 | 66 | 1011.4 |
| 20260502034522 | 52 | 214 | 3.0 | 3.0 | 0.00 | 0.00 | 0.00 | 65 | 1011.2 |
| 20260502034020 | 52 | 334 | 4.0 | 4.0 | 0.00 | 0.00 | 0.00 | 65 | 1011.3 |
| 20260502033518 | 52 | 324 | 3.0 | 4.0 | 0.00 | 0.00 | 0.00 | 66 | 1011.2 |
| 20260502033015 | 52 | 256 | 4.0 | 7.0 | 0.00 | 0.00 | 0.00 | 66 | 1011.1 |
| 20260502032511 | 53 | 221 | 6.0 | 8.0 | 0.00 | 0.00 | 0.00 | 67 | 1011.1 |
| 20260502032008 | 53 | 252 | 3.0 | 4.0 | 0.00 | 0.00 | 0.00 | 66 | 1011.1 |
| 20260502031506 | 53 | 68 | 4.0 | 4.0 | 0.00 | 0.00 | 0.00 | 66 | 1011.2 |
| 20260502031004 | 53 | 320 | 2.0 | 3.0 | 0.00 | 0.00 | 0.00 | 66 | 1011.3 |
| 20260502030502 | 53 | 271 | 2.0 | 3.0 | 0.00 | 0.00 | 0.00 | 66 | 1011.3 |
| 20260502030000 | 53 | 297 | 2.0 | 3.0 | 0.00 | 0.00 | 0.00 | 66 | 1011.2 |
| 20260502025456 | 53 | 246 | 5.0 | 6.0 | 0.00 | 0.00 | 0.00 | 66 | 1011.1 |
| 20260502024954 | 53 | 311 | 4.0 | 4.0 | 0.00 | 0.00 | 0.00 | 66 | 1011.2 |
| 20260502024452 | 53 | 246 | 3.0 | 3.0 | 0.00 | 0.00 | 0.00 | 67 | 1011.3 |
| 20260502023950 | 53 | 288 | 4.0 | 7.0 | 0.00 | 0.00 | 0.00 | 66 | 1011.0 |
| 20260502023447 | 53 | 251 | 4.0 | 4.0 | 0.00 | 0.00 | 0.00 | 66 | 1011.1 |
| 20260502022945 | 53 | 273 | 4.0 | 6.0 | 0.00 | 0.00 | 0.00 | 67 | 1010.9 |
| 20260502022441 | 53 | 285 | 6.0 | 8.0 | 0.00 | 0.00 | 0.00 | 66 | 1011.1 |
| 20260502021938 | 53 | 345 | 6.0 | 9.0 | 0.00 | 0.00 | 0.00 | 65 | 1011.1 |
| 20260502021435 | 53 | 265 | 9.0 | 10.0 | 0.00 | 0.00 | 0.00 | 64 | 1011.1 |
| 20260502020932 | 53 | 241 | 9.0 | 10.0 | 0.00 | 0.00 | 0.00 | 65 | 1011.1 |
| 20260502020430 | 53 | 275 | 6.0 | 7.0 | 0.00 | 0.00 | 0.00 | 66 | 1011.0 |
| 20260502015926 | 54 | 256 | 8.0 | 9.0 | 0.00 | 0.00 | 0.00 | 65 | 1011.0 |
| 20260502015425 | 54 | 243 | 9.0 | 11.0 | 0.00 | 0.00 | 0.00 | 63 | 1011.1 |
| 20260502014921 | 54 | 261 | 8.0 | 10.0 | 0.00 | 0.00 | 0.00 | 64 | 1011.1 |
| 20260502014418 | 54 | 251 | 10.0 | 11.0 | 0.00 | 0.00 | 0.00 | 64 | 1011.0 |
| 20260502013914 | 54 | 268 | 11.0 | 13.0 | 0.00 | 0.00 | 0.00 | 63 | 1011.1 |